Weather History for Alexandria, MN

Change the Weather History Date:

Tuesday, October 1, 2013

  Actual Average Record
Temperature  
Mean Temperature 62 °F -  
Max Temperature 70 °F 64 °F 85 °F (1951)
Min Temperature 48 °F 42 °F 26 °F (1974)
Degree Days  
Heating Degree Days 4    
Growing Degree Days 12 (Base 50)    
Moisture  
Dew Point 41 °F    
Average Humidity 50    
Maximum Humidity 77    
Minimum Humidity 24    
Precipitation  
Precipitation 0.00 in - - ()
Sea Level Pressure  
Sea Level Pressure 29.82 in    
Wind  
Wind Speed 12 mph (West)    
Max Wind Speed 22 mph    
Max Gust Speed 31 mph    
Visibility 10 miles    
Events      
Averages and records for this station are not official NWS values.
T = Trace of Precipitation, MM = Missing Value Source: NWS Daily Summary

Daily Weather History Graph

Daily Weather History Graph

Search for Another Location

Airport:

Trip Planner

Search our weather history database for the weather conditions in past years. The results will help you decide how hot, cold, wet, or windy it might be!

Date:

Astronomy

Oct. 01, 2013 Rise Set
Actual Time 7:20 AM CDT 7:01 PM CDT
Civil Twilight 6:50 AM CDT 7:30 PM CDT
Nautical Twilight 6:15 AM CDT 8:05 PM CDT
Astronomical Twilight 5:40 AM CDT 8:40 PM CDT
Moon 3:46 AM CDT (10/1) 5:12 PM CDT (10/1)
Length of Visible Light 12h 40m
Length of Day
11h 40m
Waning Crescent, 12% of the Moon is Illuminated
Oct 1
Waning Crescent
Oct 4
New
Oct 11
First Quarter
Oct 18
Full
Oct 26
Last Quarter

Hourly Weather History & Observations

Time (CDT) Temp. Dew Point Humidity Pressure Visibility Wind Dir Wind Speed Gust Speed Precip Events Conditions
12:53 AM 64.0 °F 51.1 °F 63% 29.53 in 10.0 mi South 9.2 mph - N/A   Partly Cloudy
1:53 AM 68.0 °F 50.0 °F 52% 29.53 in 10.0 mi SSW 10.4 mph - N/A   Clear
2:53 AM 64.0 °F 51.1 °F 63% 29.56 in 10.0 mi West 8.1 mph - N/A   Clear
3:53 AM 64.0 °F 51.1 °F 63% 29.59 in 10.0 mi NW 15.0 mph 21.9 mph N/A   Partly Cloudy
4:53 AM 62.1 °F 46.0 °F 56% 29.65 in 10.0 mi NW 16.1 mph 24.2 mph N/A   Partly Cloudy
5:53 AM 59.0 °F 46.0 °F 62% 29.70 in 10.0 mi WNW 13.8 mph 21.9 mph N/A   Clear
6:53 AM 55.0 °F 46.9 °F 74% 29.75 in 10.0 mi WNW 11.5 mph - N/A   Clear
7:53 AM 54.0 °F 46.9 °F 77% 29.80 in 10.0 mi West 10.4 mph - N/A   Clear
8:53 AM 55.9 °F 43.0 °F 62% 29.82 in 10.0 mi West 12.7 mph - N/A   Clear
9:53 AM 59.0 °F 43.0 °F 55% 29.85 in 10.0 mi WNW 10.4 mph 18.4 mph N/A   Clear
10:53 AM 62.1 °F 39.9 °F 44% 29.87 in 10.0 mi West 13.8 mph 20.7 mph N/A   Clear
11:53 AM 64.0 °F 37.0 °F 37% 29.88 in 10.0 mi WNW 17.3 mph 25.3 mph N/A   Clear
12:53 PM 66.0 °F 34.0 °F 30% 29.88 in 10.0 mi West 19.6 mph 27.6 mph N/A   Clear
1:53 PM 68.0 °F 35.1 °F 30% 29.88 in 10.0 mi West 16.1 mph 25.3 mph N/A   Clear
2:53 PM 69.1 °F 34.0 °F 27% 29.88 in 10.0 mi West 21.9 mph 31.1 mph N/A   Clear
3:53 PM 70.0 °F 34.0 °F 27% 29.88 in 10.0 mi WNW 17.3 mph 24.2 mph N/A   Clear
4:53 PM 69.1 °F 30.9 °F 24% 29.89 in 10.0 mi West 17.3 mph - N/A   Clear
5:53 PM 68.0 °F 32.0 °F 26% 29.91 in 10.0 mi West 11.5 mph 21.9 mph N/A   Clear
6:53 PM 64.0 °F 34.0 °F 33% 29.92 in 10.0 mi WNW 9.2 mph - N/A   Clear
7:53 PM 57.0 °F 37.0 °F 47% 29.95 in 10.0 mi WSW 5.8 mph - N/A   Clear
8:53 PM 53.1 °F 39.0 °F 59% 29.96 in 10.0 mi SW 5.8 mph - N/A   Clear
9:53 PM 53.1 °F 39.0 °F 59% 29.97 in 10.0 mi WSW 6.9 mph - N/A   Clear
10:53 PM 54.0 °F 39.0 °F 57% 30.00 in 10.0 mi West 4.6 mph - N/A   Clear
11:53 PM 48.9 °F 39.0 °F 69% 30.01 in 10.0 mi WSW 6.9 mph - N/A   Clear